Starlink 31170

operational
NORAD ID: 58801 Int'l Des: 2024-012 Owner: SPXS Country: US Constellation: starlink
LEOCIRCULAR

关于 Starlink 31170

正在加载描述...

实时位置

正在加载3D地球...

即将过境

高度历史

Altitude vs Time

uPlot chart will show altitude changes over time

两行轨道根数

1 58801U 24012Q 25350.18026992 .00000341 00000-0 21948-4 0 9999
2 58801 43.0049 276.9208 0001645 285.1665 74.9005 15.27558932108468
Epoch: Dec 16, 2025 • Age: 17 hours

当前状态

高度 490.0 km
速度 7.62 km/s
星下点 -28.22°S, 87.24°E
发射日期 Jan 15, 2024
运行时间 1.9 years
类型 internet

技术详情

分类 Payload
质量 730.00 kg
干质量 700.00 kg
总质量 730.00 kg
长度 0.30 m
直径 4.10 m
跨度 29.00 m
形状 Box + pan
制造商 SPXS
平台类型 Starlink V2M
阶段状态 In Orbit
所有者/国家 SPXS/US

大型星座

Loading constellations...